| time (UTC) | temp F | wind direction | speed MPH | gust MPH | rain 1hr in | rain 24hr in | rain mn in | humidity % | barometer mb |
| 20260503053030 | 50 | 331 | 0.0 | 2.0 | 0.00 | 0.00 | 0.00 | 87 | 1020.9 |
| 20260503051528 | 48 | 307 | 0.0 | 3.0 | 0.00 | 0.00 | 0.00 | 91 | 1021.0 |
| 20260503050026 | 47 | 261 | 0.0 | 1.0 | 0.00 | 0.00 | 0.00 | 93 | 1021.0 |
| 20260503044527 | 44 | 261 | 0.0 | 0.0 | 0.00 | 0.00 | 0.00 | 94 | 1021.0 |
| 20260503043022 | 43 | 261 | 0.0 | 0.0 | 0.00 | 0.00 | 0.00 | 93 | 1020.9 |
| 20260503041522 | 42 | 261 | 0.0 | 0.0 | 0.00 | 0.00 | 0.00 | 93 | 1020.8 |
| 20260503040026 | 41 | 261 | 0.0 | 1.0 | 0.00 | 0.00 | 0.00 | 93 | 1020.8 |
| 20260503034520 | 41 | 261 | 0.0 | 1.0 | 0.00 | 0.00 | 0.00 | 93 | 1020.7 |
| 20260503033020 | 42 | 261 | 0.0 | 1.0 | 0.00 | 0.00 | 0.00 | 93 | 1020.7 |
| 20260503031517 | 42 | 261 | 0.0 | 2.0 | 0.00 | 0.00 | 0.00 | 93 | 1020.8 |
| 20260503030019 | 42 | 272 | 0.0 | 1.0 | 0.00 | 0.00 | 0.00 | 93 | 1020.9 |
| 20260503024514 | 42 | 272 | 0.0 | 2.0 | 0.00 | 0.00 | 0.00 | 93 | 1020.9 |
| 20260503023033 | 42 | 273 | 0.0 | 2.0 | 0.00 | 0.00 | 0.00 | 92 | 1021.0 |
| 20260503021512 | 43 | 273 | 0.0 | 2.0 | 0.00 | 0.00 | 0.00 | 93 | 1021.1 |
| 20260503020009 | 43 | 273 | 0.0 | 2.0 | 0.00 | 0.00 | 0.00 | 93 | 1021.1 |
| 20260503014508 | 43 | 270 | 0.0 | 2.0 | 0.00 | 0.00 | 0.00 | 92 | 1021.2 |
| 20260503013007 | 43 | 270 | 0.0 | 1.0 | 0.00 | 0.00 | 0.00 | 92 | 1021.2 |
| 20260503011507 | 43 | 270 | 0.0 | 1.0 | 0.00 | 0.00 | 0.00 | 92 | 1021.3 |
| 20260503010004 | 44 | 270 | 0.0 | 1.0 | 0.00 | 0.00 | 0.00 | 92 | 1021.4 |
| 20260503004504 | 44 | 270 | 0.0 | 1.0 | 0.00 | 0.00 | 0.00 | 92 | 1021.4 |
| 20260503003001 | 44 | 270 | 0.0 | 2.0 | 0.00 | 0.00 | 0.00 | 92 | 1021.6 |
| 20260503001601 | 44 | 271 | 0.0 | 2.0 | 0.00 | 0.00 | 0.00 | 92 | 1021.7 |
| 20260503000110 | 44 | 271 | 0.0 | 1.0 | 0.00 | 0.00 | 0.00 | 92 | 1021.7 |
| 20260502234556 | 45 | 271 | 0.0 | 1.0 | 0.00 | 0.00 | 0.00 | 92 | 1021.7 |
| 20260502233059 | 45 | 271 | 0.0 | 2.0 | 0.00 | 0.00 | 0.00 | 91 | 1021.8 |
| 20260502231552 | 45 | 202 | 0.0 | 1.0 | 0.00 | 0.00 | 0.00 | 91 | 1021.8 |
| 20260502230051 | 45 | 202 | 1.0 | 2.0 | 0.00 | 0.00 | 0.00 | 91 | 1021.8 |
| 20260502224548 | 46 | 202 | 0.0 | 1.0 | 0.00 | 0.00 | 0.00 | 90 | 1021.9 |
| 20260502223046 | 46 | 202 | 0.0 | 1.0 | 0.00 | 0.00 | 0.00 | 90 | 1022.1 |
| 20260502221546 | 46 | 202 | 0.0 | 1.0 | 0.00 | 0.00 | 0.00 | 90 | 1022.1 |
| 20260502220044 | 47 | 202 | 0.0 | 1.0 | 0.00 | 0.00 | 0.00 | 90 | 1022.1 |
| 20260502214543 | 47 | 202 | 0.0 | 1.0 | 0.00 | 0.00 | 0.00 | 89 | 1022.0 |
| 20260502213043 | 47 | 202 | 0.0 | 1.0 | 0.00 | 0.00 | 0.00 | 89 | 1021.9 |
| 20260502211551 | 48 | 202 | 0.0 | 1.0 | 0.00 | 0.00 | 0.00 | 88 | 1021.9 |
| 20260502210041 | 48 | 202 | 0.0 | 1.0 | 0.00 | 0.00 | 0.00 | 87 | 1021.9 |
| 20260502204540 | 49 | 202 | 0.0 | 1.0 | 0.00 | 0.00 | 0.00 | 86 | 1022.0 |
| 20260502203040 | 49 | 202 | 0.0 | 0.0 | 0.00 | 0.00 | 0.00 | 86 | 1022.0 |
| 20260502201539 | 50 | 202 | 0.0 | 0.0 | 0.00 | 0.00 | 0.00 | 85 | 1022.1 |
| 20260502200044 | 50 | 202 | 0.0 | 1.0 | 0.00 | 0.00 | 0.00 | 84 | 1022.0 |
| 20260502194537 | 51 | 202 | 0.0 | 1.0 | 0.00 | 0.00 | 0.00 | 84 | 1021.9 |
| 20260502193037 | 52 | 202 | 0.0 | 0.0 | 0.00 | 0.00 | 0.00 | 83 | 1021.9 |
| 20260502191538 | 52 | 202 | 0.0 | 1.0 | 0.00 | 0.00 | 0.00 | 82 | 1021.8 |
| 20260502190036 | 53 | 202 | 0.0 | 1.0 | 0.00 | 0.00 | 0.00 | 80 | 1021.8 |
| 20260502184538 | 54 | 202 | 0.0 | 1.0 | 0.00 | 0.00 | 0.00 | 80 | 1021.6 |
| 20260502183035 | 55 | 202 | 0.0 | 1.0 | 0.00 | 0.00 | 0.00 | 78 | 1021.5 |
| 20260502181534 | 57 | 202 | 0.0 | 1.0 | 0.00 | 0.00 | 0.00 | 76 | 1021.5 |
| 20260502163029 | 70 | 85 | 1.0 | 3.0 | 0.00 | 0.00 | 0.00 | 44 | 1021.7 |
| 20260502161527 | 70 | 100 | 1.0 | 3.0 | 0.00 | 0.00 | 0.00 | 44 | 1021.8 |
| 20260502151534 | 72 | 95 | 2.0 | 9.0 | 0.00 | 0.00 | 0.00 | 41 | 1022.3 |
| 20260502123007 | 72 | 250 | 1.0 | 5.0 | 0.00 | 0.00 | 0.00 | 40 | 1023.8 |
| 20260502121507 | 73 | 348 | 4.0 | 9.0 | 0.00 | 0.00 | 0.00 | 48 | 1024.0 |
| 20260502114502 | 72 | 40 | 3.0 | 8.0 | 0.00 | 0.00 | 0.00 | 45 | 1024.4 |
| 20260502113102 | 72 | 49 | 2.0 | 6.0 | 0.00 | 0.00 | 0.00 | 44 | 1024.5 |
| 20260502111559 | 73 | 90 | 5.0 | 12.0 | 0.00 | 0.00 | 0.00 | 45 | 1024.7 |
| 20260502110056 | 72 | 78 | 1.0 | 3.0 | 0.00 | 0.00 | 0.00 | 45 | 1024.9 |
| 20260502104553 | 70 | 76 | 2.0 | 6.0 | 0.00 | 0.00 | 0.00 | 46 | 1025.2 |
| 20260502103051 | 70 | 76 | 1.0 | 6.0 | 0.00 | 0.00 | 0.00 | 46 | 1025.4 |
| 20260502101549 | 70 | 28 | 3.0 | 7.0 | 0.00 | 0.00 | 0.00 | 48 | 1025.6 |
| 20260502070020 | 60 | 281 | 0.0 | 3.0 | 0.00 | 0.00 | 0.00 | 67 | 1026.8 |
| 20260502064519 | 57 | 59 | 0.0 | 1.0 | 0.00 | 0.00 | 0.00 | 67 | 1026.8 |
| 20260502063014 | 56 | 59 | 0.0 | 3.0 | 0.00 | 0.00 | 0.00 | 69 | 1026.9 |
| 20260502061508 | 54 | 305 | 0.0 | 2.0 | 0.00 | 0.00 | 0.00 | 72 | 1027.0 |
| 20260502060004 | 52 | 167 | 0.0 | 1.0 | 0.00 | 0.00 | 0.00 | 73 | 1027.0 |
| 20260502054609 | 51 | 167 | 0.0 | 2.0 | 0.00 | 0.00 | 0.00 | 75 | 1027.1 |